This is the latest recevied weather packets stored in our database for station/object K7DC. If no packets are shown the sender has not sent any weather packets the latest 10 day(s).
| Time | Temp. | Humidity | Pressure | Rain* | Wind** | Luminosity | Snow |
|---|---|---|---|---|---|---|---|
| 1777764610 | 31.11° C | 19% | 1011.7 hPa | 0 mm | - | 333 W/m² | - |
| 1777764306 | 31.11° C | 18% | 1011.8 hPa | 0 mm | - | 311 W/m² | - |
| 1777764003 | 31.11° C | 19% | 1011.8 hPa | 0 mm | - | 421 W/m² | - |
| 1777763700 | 31.67° C | 18% | 1011.9 hPa | 0 mm | - | 292 W/m² | - |
| 1777763398 | 32.78° C | 17% | 1011.8 hPa | 0 mm | - | 434 W/m² | - |
| 1777763096 | 32.22° C | 17% | 1012 hPa | 0 mm | - | 403 W/m² | - |
| 1777762794 | 31.11° C | 18% | 1012 hPa | 0 mm | - | 249 W/m² | - |
| 1777762489 | 30.56° C | 19% | 1012.1 hPa | 0 mm | - | 535 W/m² | - |
| 1777762187 | 30.56° C | 19% | 1012.1 hPa | 0 mm | - | 212 W/m² | - |
| 1777761883 | 31.67° C | 18% | 1012.2 hPa | 0 mm | - | 262 W/m² | - |
| 1777761579 | 30.56° C | 19% | 1012.2 hPa | 0 mm | - | 381 W/m² | - |
| 1777761277 | 30.56° C | 19% | 1012.2 hPa | 0 mm | - | 450 W/m² | - |
| 1777760975 | 31.67° C | 19% | 1012.4 hPa | 0 mm | - | 228 W/m² | - |
| 1777760672 | 32.22° C | 18% | 1012.6 hPa | 0 mm | - | 225 W/m² | - |
| 1777760368 | 33.89° C | 17% | 1012.4 hPa | 0 mm | - | 614 W/m² | - |
| 1777760065 | 32.78° C | 17% | 1012.2 hPa | 0 mm | - | 627 W/m² | - |
| 1777759762 | 31.67° C | 18% | 1012.6 hPa | 0 mm | - | 656 W/m² | - |
| 1777759458 | 31.67° C | 19% | 1012.7 hPa | 0 mm | - | 616 W/m² | - |
| 1777759154 | 30.56° C | 19% | 1012.9 hPa | 0 mm | - | 617 W/m² | - |
| 1777758852 | 31.11° C | 20% | 1013 hPa | 0 mm | - | 656 W/m² | - |
| 1777758549 | 31.67° C | 19% | 1013 hPa | 0 mm | - | 692 W/m² | - |
| 1777758245 | 31.11° C | 20% | 1013.1 hPa | 0 mm | - | 719 W/m² | - |
| 1777757943 | 31.11° C | 19% | 1012.9 hPa | 0 mm | - | 681 W/m² | - |
| 1777757639 | 31.67° C | 19% | 1013.3 hPa | 0 mm | - | 686 W/m² | - |
| 1777757339 | 31.11° C | 19% | 1013.3 hPa | 0 mm | - | 790 W/m² | - |
* Rain latest hour (hover to see other rain measurements)
** Current wind speed in m/s (hover to see current wind gust speed)